When you browse on this site, cookies collect data to enhance your experience and personalize the content and advertising you see.
Visit our Privacy Policy to learn more. By continuing to use the site, you agree to this use of cookies and data.
  • Em Portugal
  • Lista de países
  • Para 7 dias
  • Temperatura da água
  • Mapas de satélite
  • Mapa do tempo
  • Widgets de tempo
  • user-avatar
    Iniciar Sessão

    Previsão horária em Oita

    Hoje, 18 Junho, Terça-feira

    Tempo Temperatura Precipitação Vento Pressão Humidade
    00:00 +21°C° 0 mm 1 m/s 754 mmHg 81%
    01:00 +20°C° 0 mm 1 m/s 754 mmHg 81%
    02:00 +20°C° 0 mm 1 m/s 753 mmHg 81%
    03:00 +20°C° 0 mm 1 m/s 753 mmHg 81%
    04:00 +20°C° 0 mm 1 m/s 753 mmHg 80%
    05:00 +20°C° 0 mm 1 m/s 754 mmHg 80%
    06:00 +21°C° 0 mm 1 m/s 754 mmHg 79%
    07:00 +22°C° 0 mm 1 m/s 753 mmHg 74%
    08:00 +22°C° 0 mm 0 m/s 753 mmHg 68%
    09:00 +24°C° 0 mm 0 m/s 753 mmHg 62%
    10:00 +26°C° 0 mm 1 m/s 753 mmHg 60%
    11:00 +27°C° 0 mm 1 m/s 753 mmHg 58%
    12:00 +28°C° 0 mm 1 m/s 753 mmHg 57%
    13:00 +27°C° 0 mm 1 m/s 753 mmHg 60%
    14:00 +26°C° 0 mm 1 m/s 753 mmHg 64%
    15:00 +26°C° 0 mm 1 m/s 753 mmHg 67%
    16:00 +26°C° 0.2 mm 1 m/s 752 mmHg 71%
    17:00 +25°C° 0.2 mm 1 m/s 752 mmHg 74%
    18:00 +25°C° 0.2 mm 1 m/s 752 mmHg 77%
    19:00 +24°C° 0 mm 1 m/s 752 mmHg 79%
    20:00 +21°C° 0 mm 0 m/s 752 mmHg 80%
    21:00 +20°C° 0 mm 0 m/s 752 mmHg 81%
    22:00 +20°C° 0 mm 0 m/s 752 mmHg 81%
    23:00 +20°C° 0 mm 0 m/s 752 mmHg 81%

    Amanhã, 19 Junho, Quarta-feira

    Tempo Temperatura Precipitação Vento Pressão Humidade
    00:00 +20°C° 0 mm 0 m/s 752 mmHg 80%
    01:00 +22°C° 0 mm 1 m/s 752 mmHg 81%
    02:00 +22°C° 0 mm 1 m/s 751 mmHg 81%
    03:00 +21°C° 0 mm 1 m/s 751 mmHg 81%
    04:00 +21°C° 0 mm 1 m/s 751 mmHg 82%
    05:00 +19°C° 0 mm 0 m/s 751 mmHg 83%
    06:00 +19°C° 0 mm 0 m/s 751 mmHg 84%
    07:00 +21°C° 0 mm 0 m/s 751 mmHg 79%
    08:00 +22°C° 0 mm 0 m/s 751 mmHg 74%
    09:00 +23°C° 0 mm 0 m/s 751 mmHg 69%
    10:00 +26°C° 0 mm 1 m/s 750 mmHg 66%
    11:00 +27°C° 0 mm 2 m/s 750 mmHg 62%
    12:00 +28°C° 0 mm 2 m/s 750 mmHg 59%
    13:00 +28°C° 0 mm 2 m/s 749 mmHg 58%
    14:00 +28°C° 0 mm 3 m/s 749 mmHg 58%
    15:00 +29°C° 0 mm 3 m/s 748 mmHg 57%
    16:00 +28°C° 0 mm 2 m/s 748 mmHg 62%
    17:00 +27°C° 0 mm 2 m/s 748 mmHg 67%
    18:00 +26°C° 0 mm 2 m/s 748 mmHg 73%
    19:00 +25°C° 0 mm 1 m/s 748 mmHg 77%
    20:00 +23°C° 0 mm 1 m/s 749 mmHg 82%
    21:00 +22°C° 0 mm 1 m/s 749 mmHg 87%
    22:00 +22°C° 0 mm 1 m/s 749 mmHg 87%
    23:00 +22°C° 0 mm 1 m/s 749 mmHg 87%

    Depois de amanhã, 20 Junho, Quinta-feira

    Tempo Temperatura Precipitação Vento Pressão Humidade
    00:00 +21°C° 0 mm 1 m/s 749 mmHg 87%
    01:00 +21°C° 0 mm 1 m/s 748 mmHg 87%
    02:00 +21°C° 0 mm 1 m/s 748 mmHg 86%
    03:00 +21°C° 0 mm 1 m/s 748 mmHg 86%
    04:00 +21°C° 0 mm 1 m/s 748 mmHg 85%
    05:00 +21°C° 0 mm 1 m/s 748 mmHg 84%
    06:00 +22°C° 0 mm 1 m/s 749 mmHg 83%
    07:00 +24°C° 0 mm 1 m/s 749 mmHg 75%
    08:00 +25°C° 0 mm 0 m/s 749 mmHg 68%
    09:00 +27°C° 0 mm 0 m/s 749 mmHg 60%
    10:00 +30°C° 0 mm 1 m/s 749 mmHg 57%
    11:00 +30°C° 0 mm 1 m/s 749 mmHg 55%
    12:00 +31°C° 0 mm 2 m/s 749 mmHg 52%
    13:00 +31°C° 0 mm 2 m/s 749 mmHg 54%
    14:00 +31°C° 0 mm 2 m/s 748 mmHg 55%
    15:00 +31°C° 0 mm 2 m/s 748 mmHg 56%
    16:00 +30°C° 0.1 mm 2 m/s 748 mmHg 63%
    17:00 +29°C° 0.1 mm 1 m/s 748 mmHg 69%
    18:00 +28°C° 0.1 mm 1 m/s 749 mmHg 75%
    19:00 +27°C° 0 mm 1 m/s 749 mmHg 78%
    20:00 +25°C° 0 mm 1 m/s 749 mmHg 81%
    21:00 +24°C° 0 mm 1 m/s 749 mmHg 83%
    22:00 +24°C° 0 mm 1 m/s 749 mmHg 84%
    23:00 +23°C° 0 mm 1 m/s 749 mmHg 85%

    21 Junho, Sexta-feira

    Tempo Temperatura Precipitação Vento Pressão Humidade
    00:00 +23°C° 0 mm 1 m/s 750 mmHg 85%
    01:00 +23°C° 0 mm 1 m/s 749 mmHg 86%
    02:00 +23°C° 0 mm 1 m/s 749 mmHg 86%
    03:00 +22°C° 0 mm 1 m/s 748 mmHg 86%
    04:00 +22°C° 0 mm 1 m/s 748 mmHg 86%
    05:00 +23°C° 0 mm 1 m/s 748 mmHg 86%
    06:00 +23°C° 0 mm 1 m/s 748 mmHg 87%
    07:00 +24°C° 0 mm 1 m/s 748 mmHg 81%
    08:00 +26°C° 0 mm 1 m/s 749 mmHg 76%
    09:00 +27°C° 0 mm 2 m/s 749 mmHg 70%
    10:00 +28°C° 0.1 mm 3 m/s 749 mmHg 66%
    11:00 +29°C° 0.1 mm 4 m/s 748 mmHg 61%
    12:00 +30°C° 0.1 mm 5 m/s 748 mmHg 57%
    13:00 +30°C° 0.1 mm 5 m/s 748 mmHg 57%
    14:00 +30°C° 0.1 mm 5 m/s 748 mmHg 58%
    15:00 +30°C° 0.1 mm 5 m/s 747 mmHg 59%
    16:00 +29°C° 0.1 mm 5 m/s 747 mmHg 64%
    17:00 +28°C° 0.1 mm 5 m/s 747 mmHg 70%
    18:00 +27°C° 0.1 mm 4 m/s 747 mmHg 75%
    19:00 +25°C° 0 mm 4 m/s 747 mmHg 80%
    20:00 +24°C° 0 mm 3 m/s 747 mmHg 86%
    21:00 +21°C° 0 mm 3 m/s 747 mmHg 91%
    22:00 +21°C° 0 mm 2 m/s 747 mmHg 91%
    23:00 +21°C° 0 mm 2 m/s 747 mmHg 91%

    22 Junho, Sábado

    Tempo Temperatura Precipitação Vento Pressão Humidade
    00:00 +21°C° 0 mm 1 m/s 747 mmHg 91%
    01:00 +21°C° 0 mm 1 m/s 747 mmHg 90%
    02:00 +21°C° 0 mm 1 m/s 746 mmHg 89%
    03:00 +21°C° 0 mm 1 m/s 746 mmHg 89%
    04:00 +21°C° 0 mm 1 m/s 746 mmHg 87%
    05:00 +21°C° 0 mm 1 m/s 746 mmHg 86%
    06:00 +21°C° 0 mm 1 m/s 746 mmHg 84%
    07:00 +23°C° 0 mm 1 m/s 746 mmHg 78%
    08:00 +25°C° 0 mm 1 m/s 746 mmHg 71%
    09:00 +27°C° 0 mm 1 m/s 747 mmHg 65%
    10:00 +28°C° 0.2 mm 1 m/s 746 mmHg 65%
    11:00 +28°C° 0.2 mm 1 m/s 746 mmHg 64%
    12:00 +29°C° 0.2 mm 1 m/s 746 mmHg 64%
    13:00 +28°C° 0.9 mm 1 m/s 746 mmHg 69%
    14:00 +28°C° 0.9 mm 1 m/s 745 mmHg 74%
    15:00 +27°C° 0.9 mm 1 m/s 745 mmHg 79%
    16:00 +27°C° 1.2 mm 1 m/s 746 mmHg 81%
    17:00 +26°C° 1.2 mm 2 m/s 746 mmHg 83%
    18:00 +25°C° 1.2 mm 2 m/s 746 mmHg 86%
    19:00 +24°C° 0.5 mm 2 m/s 746 mmHg 87%
    20:00 +23°C° 0.5 mm 2 m/s 747 mmHg 89%
    21:00 +20°C° 0.5 mm 2 m/s 747 mmHg 91%
    22:00 +20°C° 0.1 mm 2 m/s 747 mmHg 91%
    23:00 +20°C° 0.1 mm 2 m/s 747 mmHg 92%

    23 Junho, Domingo

    Tempo Temperatura Precipitação Vento Pressão Humidade
    00:00 +19°C° 0.1 mm 2 m/s 747 mmHg 92%
    01:00 +19°C° 0 mm 2 m/s 747 mmHg 92%
    02:00 +19°C° 0 mm 2 m/s 747 mmHg 92%
    03:00 +19°C° 0 mm 2 m/s 747 mmHg 92%
    04:00 +19°C° 0 mm 2 m/s 748 mmHg 92%
    05:00 +19°C° 0 mm 2 m/s 748 mmHg 92%
    06:00 +19°C° 0 mm 2 m/s 748 mmHg 92%
    07:00 +20°C° 0 mm 2 m/s 748 mmHg 83%
    08:00 +22°C° 0 mm 3 m/s 749 mmHg 74%
    09:00 +24°C° 0 mm 3 m/s 749 mmHg 65%
    10:00 +25°C° 0 mm 3 m/s 749 mmHg 60%
    11:00 +26°C° 0 mm 3 m/s 749 mmHg 56%
    12:00 +27°C° 0 mm 3 m/s 749 mmHg 51%
    13:00 +27°C° 0 mm 4 m/s 748 mmHg 51%
    14:00 +27°C° 0 mm 4 m/s 748 mmHg 51%
    15:00 +28°C° 0 mm 4 m/s 748 mmHg 51%
    16:00 +27°C° 0 mm 4 m/s 748 mmHg 56%
    17:00 +26°C° 0 mm 4 m/s 748 mmHg 61%
    18:00 +25°C° 0 mm 4 m/s 748 mmHg 66%
    19:00 +22°C° 0 mm 3 m/s 749 mmHg 72%
    20:00 +21°C° 0 mm 3 m/s 749 mmHg 77%
    21:00 +19°C° 0 mm 3 m/s 750 mmHg 83%
    22:00 +19°C° 0 mm 2 m/s 750 mmHg 82%
    23:00 +18°C° 0 mm 2 m/s 750 mmHg 80%
    Mostrar mais